User: anonymous   Login
Location: Elstree
(51.6403°N, 0.2969°W)
Time: 05:00:05
(UTC+00:00)
Language:

NOSS 3-3 (C) - Orbit

View from above orbital plane
View from above orbital plane
View from above satellite
View from above satellite

Ground track
Ground track

The orbit data is extracted from the following two-line orbital elements,

1 28541U 05004C   21128.00513651 0.00000000  00000-0  00000-0 0    07
2 28541  63.4222 163.4333 0395783 358.6460   1.3539 13.40809770    01
Epoch (UTC): 08 May 2021 00:07:23
Eccentricity: 0.0395783
inclination: 63.4222°
perigee height: 810 km
apogee height: 1402 km
right ascension of ascending node: 163.4333°
argument of perigee: 358.6460°
revolutions per day: 13.40809770
mean anomaly at epoch: 1.3539°
orbit number at epoch: 0

The dashed part of the orbit path shows where the satellite is in the earth's shadow,  

DLR